loading
|
Showing default

OPS 5798 (TRANSIT 5B-4), 897

Orbit data source: Space-Track

OPS 5798 (TRANSIT 5B-4), 897 is a payload satellite owned by USN BuWeps (US) in LEO that was launched on Tue, 06 Oct 1964 UTC via a THOR ABLESTAR launch vehicle from the Air Force Western Test Range (AFWTR). Payloads include a variety of satellites, spacecraft, and rockets equipped with specific instruments for various scientific and technological missions. These include communications satellites like Starlink; space stations such as the ISS; scientific satellites like the Hubble; Earth observation satellites from companies like Planet Labs, Umbra, and HawkEye 360; GPS; miniature CubeSats for education and research; and military/defense satellites.

Loading next visibility...
Loading greatness...
OPS 5798 (TRANSIT 5B-4) details
Identifier
897, 1964-063B
Orbit
LEO
Last TLE update1 day ago
Origin
Flag of USUSN BuWeps (US)
ManufacturerNAFI
Mission statusUnknown
Mission OPS 5798)"
Bus & MotorTRANSIT 5, Unknown motor
Mass~54 kg wet, ~54 kg dry
Launch date (UTC)
1964-10-06 (60 years ago)
Launch vehicle
THOR ABLESTAR
Launch site
Air Force Western Test Range (AFWTR)
Object type
Payload
Rocket body
Debris
Radar Cross Section0.56 m², Medium (>0.1 m² and < 1m²)

Expand to show TLE details & history

TLE from 1 day ago
0 OPS 5798 (TRANSIT 5B-4)
1 00897U 64063B   24250.50585650  .00000159  00000-0  22286-3 0  9998
2 00897  90.2159  60.5338 0017699 263.2504 156.0624 13.53617035957482
Epoch: 2024-09-06T12:08Z
Definitive object data (Epoch: 2024-09-06T12:08:26.001Z)
Latitude59.48463°
Longitude-108.01638°
Altitude1,081.194 km
Speed7.311 km/s
True Right ascension04h 00m 40s
True Declination59° 20' 26"
Sunlit
Object was in daylight at TLE epoch
Predictive object data (real-time)
Latitude-21.0804°
Longitude72.29178°
Altitude1,060.162 km
Speed7.324 km/s
Apparent Right ascension18h 08m 59s
Apparent Declination-36° 18' 10"
Sunlit
Object is in daylight
Predictive observer data (real-time)
Local Sidereal Time09:22:04
Azimuth100.354° ESE
Elevation-52.31°
Doppler factor1
Orbital elements
Apogee1,069.183 km
Perigee1,042.867 km
Semi-major axis7,434.162 km
Eccentricity0.0017699
Inclination90.2159°
RAAN60.5338°
Arg. of periapsis263.2504°
True anomaly156.14452°
Mean anomaly156.0624°
Eccentric anomaly156.10348°
Mean motion3.38606 °/min
BSTAR0.00022286
Period106.32 mins
No data available

OPS 5798 (TRANSIT 5B-4) Visibility forecast

Observer location: 39.9160978°, -105.1181434

OPS 5798 (TRANSIT 5B-4) is not visible in the next 10 days
Span
Click to sort rows by Start time (UTC) header in descending order
Start Az.
Max El. time (UTC)
Max El. Az.
Max El.
End time (UTC)
End Az.